Preview of NWS' New Version of Forecast
This preview is not operational and should not be used for support decisions.

Regional Weather Roundup (RWR)

Issued by National Weather Service (NWS)

                            
000
ASUS46 KSEW 190410
RWRWA 

WASHINGTON REGIONAL WEATHER ROUNDUP
NATIONAL WEATHER SERVICE SEATTLE WA
900 PM PDT TUE JUN 18 2019

NOTE:"FAIR" INDICATES FEW OR NO CLOUDS BELOW 12,000 FEET WITH NO 
SIGNIFICANT WEATHER AND/OR OBSTRUCTIONS TO VISIBILITY.

WAZ507-509-555>559-190500-
SEATTLE, TACOMA, EVERETT, AND VICINITY
  
CITY           SKY/WX    TMP DP  RH WIND       PRES   REMARKS
EVERETT        LGT RAIN  56  50  80 N7        30.20S                  
BOEING FIELD   CLOUDY    62  54  74 VRB3      30.17S                  
RENTON         CLOUDY    64  56  75 CALM      30.17S                  
SEATAC AIRPORT MOCLDY    61  54  77 W5        30.18S                  
JBLM-MCCHORD   CLEAR     62  52  71 SW10      30.19R                  
PUYALLUP       CLOUDY    63  50  63 SW8       30.19R                  
BREMERTON      MOCLDY    57  54  89 NE9       30.18S                  
JBLM-FT LEWIS  CLEAR     61  52  74 S14       30.19R                  
TACOMA NARROWS CLEAR     60  46  59 SW7       30.19R                  
$$
 
WAZ001-503-506-510-514-515-190500-
NORTH INTERIOR
  
CITY           SKY/WX    TMP DP  RH WIND       PRES   REMARKS
BELLINGHAM     CLOUDY    60  47  61 S12       30.13S                  
FRIDAY HARBOR  CLEAR     75  46  35 SW12      30.15F                  
EASTSOUND      PTCLDY    61  48  63 S10       30.11S                  
PORT ANGELES   CLEAR     54  46  74 W13       30.20F                  
EDIZ HOOK      FAIR      54  48  82 W15G21    30.18F                  
PORT TOWNSEND  MOCLDY    57  48  72 W8G16     30.18F                  
NAS WHIDBEY    PTCLDY    57  47  69 SW15G23   30.22S                  
ARLINGTON      PTCLDY    57  48  72 NW5       30.20S                  
BURLINGTON     CLEAR     55  48  76 S8        30.18F                  
$$
 
WAZ020-022-039-040-504-511-512-190500-
SOUTHWEST INTERIOR
  
CITY           SKY/WX    TMP DP  RH WIND       PRES   REMARKS
SHELTON        CLEAR     59  46  62 SW15      30.17R                  
OLYMPIA        CLEAR     58  46  64 SW10      30.20R                  
CHEHALIS       FAIR      57  48  72 VRB7G13   30.23S                  
KELSO          CLEAR     58  46  64 W9        30.25R                  
VANCOUVER      CLEAR     61  46  57 NW10      30.22R                  
SCAPPOOSE, OR  CLEAR     59  45  59 NW7       30.22S                  
PORTLAND, OR   PTCLDY    62  46  55 NW12G21   30.23R                  
$$
 
WAZ021-516-517-190500-
WASHINGTON COAST
  
CITY           SKY/WX    TMP DP  RH WIND       PRES   REMARKS
FORKS          CLOUDY    54  49  83 NW7       30.26F                  
HOQUIAM        CLEAR     55  50  83 NW17G25   30.25S HAZE             
ASTORIA, OR    MOCLDY    57  49  74 NW13      30.28S                  
$$
 
WAZ019-023-024-040-567>569-190500-
CASCADE MOUNTAINS AND COLUMBIA GORGE
  
CITY           SKY/WX    TMP DP  RH WIND       PRES   REMARKS
STAMPEDE PASS  FOG       48  45  89 W8        30.16F VSB 1/2          
TROUTDALE, OR  CLEAR     63  47  55 NW7       30.21R                  
HOOD RIVER, OR CLEAR     63  45  51 W6        30.13R                  
THE DALLES, OR CLEAR     68  43  40 NW25G32   30.06R                  
$$

WAZ026-027-041>044-520-521-190500-
EAST SLOPES
  
CITY           SKY/WX    TMP DP  RH WIND       PRES   REMARKS
OMAK           CLEAR     76  33  21 NW13G22   29.84R                  
WENATCHEE      CLEAR     68  33  27 W20G26    29.96R                  
ELLENSBURG     CLEAR     62  46  55 NW26G41   30.03F                  
YAKIMA         CLEAR     68  42  38 NW16G22   30.00R                  
SUNNYSIDE ARPT CLEAR     72  43  34 W9        29.96                   
YAKIMA TC      FAIR      65  42  42 N23       30.01R                  
$$

WAZ028-034-035-190500-
COLUMBIA BASIN
  
CITY           SKY/WX    TMP DP  RH WIND       PRES   REMARKS
EPHRATA        CLEAR     73  28  18 W32G41    29.87F                  
MOSES LAKE     CLEAR     76  28  17 W14       29.90R                  
PASCO          CLEAR     76  48  37 SW5       29.92R                  
RICHLAND ARPT  CLEAR     76  51  41 E5        29.92R                  
HERMISTON, OR  PTCLDY    72  44  36 SW20G29   29.95S                  
$$

WAZ036>038-190500-
NORTHEAST WASHINGTON
  
CITY           SKY/WX    TMP DP  RH WIND       PRES   REMARKS
SPOKANE GEIGER PTCLDY    74  38  27 SW14      29.91S                  
SPOKANE FELTS  CLEAR     77  38  24 SW10      29.89F                  
FAIRCHILD AFB  CLEAR     70  38  31 SW13      29.92S                  
COEURDALENE,ID CLEAR     70  48  45 S9        29.91F                  
DEER PARK      CLEAR     74  42  31 MISG      29.89S                  
$$

WAZ029>033-190500-
SOUTHEAST WASHINGTON
  
CITY           SKY/WX    TMP DP  RH WIND       PRES   REMARKS
PULLMAN        CLEAR     69  47  45 SW9       29.99S                  
LEWISTON, ID   CLEAR     76  42  29 W7        29.92F                  
WALLA WALLA    CLEAR     73  46  38 SW12      29.97R                  
PENDLETON, OR  PTCLDY    69  42  37 W18       29.98S                  
$$